www.pogodaiklimat.ru

Погода и климат >> Архив погоды >> Франция >> Булонь-сюр-Мер


ПОГОДА в Булонь-сюр-Мере

  • Прогноз погоды в Булонь-сюр-Мере
  • Монитор погоды в Булонь-сюр-Мере

АРХИВ ПОГОДЫ в Булонь-сюр-Мере

Время (UTC), дата Ветер
(напр.,м/с)
 
Видим.   Явления Облачность Т
(С)
Тd
(С)
f
(%)
Тe
(С)
Тes
(С)
Комфортность P
(гПа)
Po
(гПа)
Тmin
(С)
Tmax
(С)
R
(мм)
R24
(мм)
S
(см)
22 11.06 В 1-2
{3}
н/о н/о +14.3 +8.7 69 +15 +15 1011.3 1003.2
23 11.06 С 1-2
{2}
н/о н/о +13.5 +8.8 73 +14 +14 1011.2 1003.1
00 12.06 С 1-2
{2}
н/о н/о +13.0 +8.9 76 +13 +13 1010.7 1002.6
01 12.06 В 1-3
{3}
н/о н/о +12.5 +8.6 77 +13 +13 1010.5 1002.4
02 12.06 ЮВ 1-2
{2}
н/о н/о +12.3 +8.8 79 +12 +12 1010.1 1002.0
03 12.06 ЮВ 1-1
{2}
20 км 9/9 1200 м
[Sc diur, vesp]
+12.3 +8.9 80 +13 +13 1010.1 1002.0
04 12.06 В 1-1
{1}
н/о н/о +12.3 +8.9 80 +13 +13 1009.7 1001.6
05 12.06 В 1-2
{2}
н/о н/о +12.5 +9.0 79 +13 +13 1009.5 1001.4
06 12.06 В 1
{4}
10 км 10/10 1200 м
[Sc diur, vesp]
+12.4 +9.2 81 +12 +12 1009.4 1001.3 +12.1 +16.7
07 12.06 Ю 1-2
{2}
н/о н/о +13.3 +10.3 82 +13 +13 1009.2 1001.1
08 12.06 Ю 1-1
{2}
н/о н/о +13.7 +11.0 84 +15 +15 1009.1 1001.0
09 12.06 ЮЗ 1-2
{2}
10 км 10/10 1200 м
[Sc diur, vesp]
+14.3 +11.3 82 +15 +15 1009.2 1001.1
10 12.06 Ю 1-2
{2}
н/о н/о +14.4 +11.0 80 +15 +15 1009.1 1001.0
11 12.06 ЮЗ 1-2
{2}
н/о н/о +13.7 +11.7 88 +14 +14 1009.3 1001.2 0.2
12 12.06 ЮЗ 2-2
{3}
н/о н/о +13.7 +11.0 84 +13 +13 1009.6 1001.5 0.4
13 12.06 З 1-1
{2}
н/о н/о +13.3 +11.0 86 +13 +13 1009.5 1001.4 0.4
14 12.06 С 1-2
{2}
н/о н/о +13.9 +12.3 90 +14 +14 1009.3 1001.2 0.4
15 12.06 С 2-3
{3}
9000 м 10/10 1200 м
[Sc diur, vesp]
+15.9 +12.6 81 +16 +16 1008.5 1000.5 0.8
16 12.06 С 2-3
{3}
н/о н/о +14.5 +10.5 77 +14 +14 1008.5 1000.4
17 12.06 В 1-2
{3}
9000 м в посл. час дождь 9/9 480 м
[Frnb]
+13.0 +11.2 89 +13 +14 1008.5 1000.4 4
18 12.06 В 1
{5}
9000 м в посл. час дождь 9/9 480 м
[Frnb]
+12.1 +10.5 90 +12 +12 1008.1 1000.0 +11.9 +16.3 5
19 12.06 В 1-2
{2}
н/о н/о +12.0 +10.1 88 +12 +12 1008.0 999.9
20 12.06 ЮВ 2-3
{3}
н/о н/о +11.8 +10.0 89 +11 +11 1008.1 1000.0
21 12.06 ЮВ 2
{6}
15 км 9/4 480 м
[Frnb As op]
+12.3 +11.0 92 +12 +12 1008.2 1000.1 0.2
22 12.06 ЮВ 2-3
{3}
н/о н/о +12.2 +11.3 94 +11 +11 1008.0 999.9
23 12.06 Ю 3-4
{4}
н/о н/о +12.0 +10.9 93 +10 +10 1007.8 999.7
00 13.06 Ю 4
{7}
15 км 9/4 480 м
[Frnb As op]
+12.0 +11.2 95 +10 +10 1007.4 999.3
01 13.06 ЮЗ 4-6
{6}
н/о н/о +12.9 +11.1 89 +11 +11 1007.4 999.3
02 13.06 ЮЗ 4-6
{6}
н/о н/о +12.9 +11.6 92 +11 +11 1007.3 999.2
03 13.06 ЮЗ 5-7
{7}
н/о н/о +13.0 +11.7 92 +11 +11 1007.1 999.0
04 13.06 ЮЗ 3-6
{7}
н/о н/о +12.7 +11.6 93 +11 +11 1007.5 999.4 0.4
05 13.06 ЮЗ 4-6
{6}
н/о н/о +12.3 +10.4 88 +10 +10 1007.9 999.8
06 13.06 ЮЗ 4
{14}
10 км слаб. ливневой дождь 10/10 480 м
[Frnb Ns]
+12.5 +11.1 91 +10 +10 1008.0 999.9 +11.8 +13.1 0.4
07 13.06 Ю 4-7
{7}
н/о н/о +12.6 +10.8 89 +11 +11 1008.2 1000.1 1
08 13.06 Ю 4-8
{8}
н/о н/о +13.1 +10.8 86 +11 +11 1008.4 1000.3 0.6
09 13.06 Ю 4-8
{8}
10 км в посл. час дождь {ливн. осадки} 10/10 800 м
[Sc]
+13.8 +10.8 82 +12 +12 1008.7 1000.6 2
10 13.06 Ю 4-8
{8}
н/о н/о +13.5 +11.4 87 +12 +12 1008.7 1000.6 0.2
11 13.06 Ю 5-8
{8}
н/о н/о +14.0 +10.8 81 +12 +12 1008.6 1000.5
12 13.06 Ю 4
{15}
15 км {ливн. осадки, дождь} 10/8 800 м
[Sc Ac As]
+14.3 +11.1 81 +13 +14 1008.7 1000.6 0.2
13 13.06 Ю 4-6
{7}
н/о н/о +14.1 +11.6 85 +13 +13 1008.8 1000.7 0.8
14 13.06 ЮЗ 4-7
{7}
н/о н/о +14.5 +11.6 83 +13 +13 1009.1 1001.0
15 13.06 ЮЗ 4
{13}
10 км 10/8 800 м
[Sc Ac As]
+14.6 +11.2 80 +13 +14 1009.0 1000.9 0.8
16 13.06 ЮЗ 4-7
{7}
н/о н/о +15.4 +11.0 75 +14 +14 1008.9 1000.9
17 13.06 ЮЗ 4-6
{7}
н/о н/о +14.4 +11.0 80 +13 +13 1009.2 1001.1
18 13.06 ЮЗ 4-6
{6}
н/о н/о +14.8 +10.4 75 +14 +14 1009.6 1001.5 +12.1 +15.7
19 13.06 ЮЗ 3-5
{7}
н/о н/о +13.8 +10.4 80 +13 +13 1010.2 1002.1
20 13.06 ЮЗ 3-4
{5}
н/о н/о +13.3 +10.1 81 +12 +12 1010.5 1002.4
21 13.06 Ю 2
{11}
15 км 8/4 800 м
[Sc Ac As Ci fib]
+13.3 +10.8 85 +13 +13 1011.0 1002.9
22 13.06 Ю 2-4
{5}
н/о н/о +13.5 +10.3 81 +13 +13 1011.1 1003.0
23 13.06 Ю 2-4
{4}
н/о н/о +13.4 +10.2 81 +13 +13 1011.4 1003.3
00 14.06 Ю 2-3
{4}
15 км 4/0
[Ci sp]
+12.7 +10.1 84 +12 +12 1011.4 1003.3
01 14.06 Ю 2-3
{3}
н/о н/о +11.8 +10.2 90 +11 +11 1011.2 1003.0
02 14.06 Ю 2-3
{3}
н/о н/о +11.5 +10.1 91 +10 +10 1011.0 1002.8
03 14.06 ЮВ 2-3
{3}
н/о н/о +11.2 +9.9 92 +10 +10 1011.4 1003.2
04 14.06 ЮВ 2-3
{3}
н/о н/о +11.1 +9.8 92 +10 +10 1011.6 1003.4
05 14.06 ЮВ 2-3
{3}
н/о н/о +11.1 +9.8 92 +10 +10 1011.9 1003.7
06 14.06 Ю 2
{7}
н/о н/о +12.1 +10.3 89 +11 +11 1012.0 1003.8 +11.0 +14.8
07 14.06 Ю 3-5
{5}
н/о н/о +13.6 +11.1 85 +13 +13 1012.3 1004.2
08 14.06 Ю 3-5
{5}
н/о н/о +14.3 +10.9 80 +14 +14 1012.4 1004.3
09 14.06 Ю 3
{10}
15 км 5/4 800 м
[Sc diur, vesp Ac lent]
+14.8 +11.2 79 +14 +19 1012.8 1004.7
10 14.06 ЮЗ 4-6
{6}
н/о н/о +14.4 +11.4 82 +13 +13 1013.4 1005.3
11 14.06 ЮЗ 3-6
{6}
н/о н/о +15.2 +11.8 80 +14 +14 1013.7 1005.6
12 14.06 Ю 3-6
{6}
15 км 4/4 1000 м
[Sc diur, vesp]
+16.5 +9.7 64 +16 +25 1014.0 1005.9
13 14.06 ЮЗ 6
{12}
н/о н/о +16.0 +9.6 66 +15 +15 1014.1 1006.0
14 14.06 З 2-3
{5}
н/о н/о +16.5 +11.2 71 +17 +17 1013.6 1005.6
15 14.06 З 2-3
{4}
н/о н/о +15.9 +10.6 71 +16 +16 1013.3 1005.2
16 14.06 СЗ 1-2
{3}
н/о н/о +16.8 +11.3 70 +18 +18 1012.8 1004.8
17 14.06 СЗ 1-2
{2}
н/о н/о +16.5 +8.5 59 +18 +18 1012.9 1004.9
18 14.06 С 1-2
{2}
н/о н/о +16.3 +8.3 59 +17 +17 1012.8 1004.7 +12.0 +17.5
19 14.06 С 1-1
{2}
н/о н/о +16.4 +8.9 61 +18 +18 1012.8 1004.8
20 14.06 С 1-2
{2}
н/о н/о +15.1 +8.8 66 +16 +16 1013.1 1005.0
21 14.06 СВ 1-2
{2}
20 км 6/6 1000 м
[Sc diur, vesp]
+15.1 +8.1 63 +16 +16 1013.2 1005.1
22 14.06 В 2-2
{2}
н/о н/о +15.0 +8.7 66 +15 +15 1013.2 1005.1
23 14.06 В 2-2
{2}
н/о н/о +14.5 +8.9 69 +15 +15 1012.8 1004.7
00 15.06 СВ 1-2
{3}
20 км 6/0
[Ac lent]
+14.4 +8.3 67 +15 +15 1012.6 1004.5
01 15.06 С 1-1
{2}
н/о н/о +14.7 +8.0 64 +16 +16 1012.4 1004.3
02 15.06 штиль 0-1
{2}
н/о н/о +14.1 +9.3 73 +14 +14 1012.4 1004.3
03 15.06 штиль 0-1
{1}
н/о н/о +13.7 +10.1 79 +13 +13 1012.6 1004.5
04 15.06 З 1-2
{2}
н/о н/о +13.7 +10.9 83 +14 +14 1013.0 1004.9
05 15.06 З 1-1
{2}
н/о н/о +13.6 +10.9 84 +15 +15 1013.0 1004.9
06 15.06 СЗ 1
{3}
20 км 6/6 1000 м
[Sc]
+14.5 +12.2 86 +16 +17 1013.2 1005.1 +13.5 +16.4
07 15.06 СЗ 1-2
{2}
н/о н/о +14.5 +11.3 81 +15 +15 1013.6 1005.5
08 15.06 З 1-1
{2}
н/о н/о +14.7 +11.3 80 +16 +16 1014.3 1006.2
09 15.06 ЮЗ 2
{4}
25 км 6/4 1500 м
[Cu med, cong Ac cuf]
+15.6 +11.6 77 +16 +22 1014.5 1006.4
10 15.06 ЮЗ 3-3
{3}
н/о н/о +15.6 +10.4 71 +15 +15 1014.9 1006.8
11 15.06 ЮЗ 3-5
{5}
н/о н/о +16.6 +10.0 65 +16 +16 1015.3 1007.2
12 15.06 ЮЗ 3
{10}
23 км 6/4 1500 м
[Cu med, cong Ac cuf]
+16.1 +13.0 82 +16 +22 1015.8 1007.7
13 15.06 ЮЗ 3-5
{5}
н/о н/о +16.4 +12.7 79 +16 +16 1015.8 1007.7
14 15.06 ЮЗ 3-4
{5}
н/о н/о +16.3 +11.2 72 +16 +16 1016.0 1007.9
15 15.06 ЮЗ 3-4
{5}
н/о н/о +16.5 +10.1 66 +16 +16 1015.7 1007.6
16 15.06 ЮЗ 3-5
{5}
н/о н/о +18.0 +10.6 62 +18 +18 1015.3 1007.3
17 15.06 ЮЗ 3-4
{5}
н/о н/о +17.6 +10.9 65 +18 +18 1015.3 1007.3
18 15.06 Ю 3-5
{5}
н/о н/о +17.7 +10.3 62 +18 +18 1015.3 1007.3 +14.4 +18.3
19 15.06 Ю 2-4
{6}
н/о н/о +16.8 +10.4 66 +17 +17 1015.6 1007.5
20 15.06 Ю 3-5
{5}
н/о н/о +16.8 +10.6 67 +17 +17 1015.6 1007.5
21 15.06 ЮЗ 3
{13}
15 км 5/5 800 м
[Sc As op]
+14.8 +12.5 86 +14 +14 1016.2 1008.1
22 15.06 ЮЗ 4-6
{6}
н/о н/о +15.2 +12.3 83 +14 +14 1016.2 1008.1
23 15.06 ЮЗ 3-6
{7}
н/о н/о +15.0 +12.5 85 +14 +14 1016.1 1008.0
00 16.06 ЮЗ 3
{10}
12 км 5/5 800 м
[Sc As op]
+14.6 +13.1 91 +14 +14 1016.8 1008.7
01 16.06 ЮЗ 3-5
{5}
н/о н/о +14.5 +13.4 93 +14 +14 1016.7 1008.6 0.2
02 16.06 ЮЗ 3-4
{5}
н/о н/о +13.6 +13.0 96 +13 +13 1016.8 1008.7
03 16.06 ЮЗ 3-4
{4}
н/о н/о +13.8 +13.2 96 +13 +13 1017.2 1009.1 0.2
04 16.06 ЮЗ 4-6
{6}
н/о н/о +13.5 +12.6 94 +12 +12 1017.6 1009.4
05 16.06 ЮЗ 2-4
{5}
н/о н/о +13.3 +11.7 90 +12 +12 1018.0 1009.8
06 16.06 ЮЗ 3
{10}
12 км 6/6 800 м
[Sc Ci sp]
+14.1 +12.7 91 +13 +14 1018.3 1010.2 +13.3 +17.6
07 16.06 ЮЗ 3-5
{6}
н/о н/о +14.5 +12.5 88 +14 +14 1018.9 1010.8
08 16.06 ЮЗ 3-5
{6}
н/о н/о +15.4 +13.1 86 +15 +15 1019.0 1010.9
09 16.06 ЮЗ 4
{13}
15 км 8/5 800 м
[Sc Ac trans]
+15.7 +12.8 83 +15 +18 1019.6 1011.5
10 16.06 ЮЗ 4-7
{8}
н/о н/о +16.9 +13.2 79 +17 +17 1019.7 1011.6
11 16.06 Ю 4-6
{7}
н/о н/о +16.9 +13.0 78 +17 +17 1019.9 1011.8
12 16.06 ЮЗ 5-7
{7}
н/о н/о +16.8 +12.5 76 +16 +16 1020.0 1011.9
13 16.06 ЮЗ 4-6
{7}
н/о н/о +17.6 +12.7 73 +17 +17 1020.1 1012.0
14 16.06 ЮЗ 4-6
{8}
н/о н/о +17.3 +13.2 77 +17 +17 1020.4 1012.3
15 16.06 ЮЗ 4-5
{6}
н/о н/о +17.1 +13.0 77 +17 +17 1020.6 1012.5
16 16.06 ЮЗ 3-4
{5}
н/о н/о +16.8 +12.5 76 +17 +17 1020.5 1012.4
17 16.06 ЮЗ 3-4
{4}
н/о н/о +16.8 +12.1 74 +17 +17 1020.4 1012.3
18 16.06 ЮЗ 2
{7}
15 км 8/5 800 м
[Sc Ac trans Ci sp]
+16.0 +11.4 74 +16 +17 1020.8 1012.7 +14.0 +18.0
19 16.06 ЮЗ 2-3
{3}
н/о н/о +15.9 +11.1 73 +16 +16 1020.7 1012.6
20 16.06 Ю 1-2
{3}
н/о н/о +15.1 +11.1 77 +16 +16 1020.4 1012.3
21 16.06 ЮВ 1-2
{3}
15 км 4/0
[Ac trans]
+14.5 +10.9 79 +15 +15 1020.7 1012.5
22 16.06 ЮВ 1-2
{2}
н/о н/о +14.1 +10.7 80 +14 +14 1020.7 1012.5
23 16.06 ЮВ 1-2
{2}
н/о н/о +13.6 +10.4 81 +14 +14 1020.5 1012.3
00 17.06 ЮВ 2-2
{2}
н/о н/о +13.4 +10.2 81 +13 +13 1020.2 1012.0
01 17.06 ЮВ 3-3
{3}
н/о н/о +13.3 +10.8 85 +12 +12 1019.8 1011.6
02 17.06 С 1-1
{4}
н/о н/о +13.2 +10.9 86 +14 +14 1019.7 1011.5
03 17.06 ЮВ 2-3
{3}
12 км 5/0
[Ac trans]
+13.5 +11.2 86 +13 +13 1019.4 1011.2
04 17.06 ЮВ 2-4
{4}
н/о н/о +13.5 +11.5 88 +13 +13 1019.4 1011.2
05 17.06 ЮВ 2-3
{3}
н/о н/о +14.1 +11.8 86 +14 +14 1019.5 1011.3
06 17.06 Ю 2
{6}
н/о н/о +15.5 +12.4 82 +16 +16 1019.8 1011.7 +13.1 +16.3
07 17.06 Ю 2-3
{3}
н/о н/о +16.8 +13.3 80 +17 +17 1020.0 1011.9
08 17.06 ЮЗ 3-4
{4}
н/о н/о +16.2 +13.1 82 +16 +16 1020.0 1011.9
09 17.06 ЮЗ 3-4
{4}
н/о н/о +16.4 +13.1 81 +16 +16 1019.9 1011.8
10 17.06 ЮЗ 2-3
{4}
н/о н/о +16.5 +12.6 78 +17 +17 1019.9 1011.8
11 17.06 ЮЗ 2-3
{3}
н/о н/о +16.7 +13.2 80 +17 +17 1019.8 1011.7
12 17.06 З 2-3
{3}
18 км 4/0
[Ci sp]
+16.5 +12.8 79 +17 +32 опасность
простуды
1019.5 1011.4
13 17.06 З 1-2
{3}
н/о н/о +16.9 +12.6 76 +18 +18 1019.2 1011.1
14 17.06 З 2-2
{2}
н/о н/о +16.6 +12.7 78 +17 +17 1019.1 1011.0
15 17.06 З 1-2
{2}
н/о н/о +17.8 +12.0 69 +19 +19 1018.6 1010.6
16 17.06 З 2-2
{5}
н/о н/о +17.4 +12.1 71 +18 +18 1018.3 1010.2
17 17.06 З 1-2
{2}
н/о н/о +16.4 +11.5 73 +17 +17 1018.1 1010.0
18 17.06 З 1
{4}
20 км 6/0
[Ci sp]
+15.5 +11.1 75 +17 +19 1017.7 1009.6 +15.4 +17.9
19 17.06 СЗ 1-1
{1}
н/о н/о +15.2 +10.6 74 +16 +16 1017.6 1009.5
20 17.06 З 1-1
{2}
н/о н/о +14.6 +10.6 77 +16 +16 1017.6 1009.5
21 17.06 З 1-2
{2}
20 км 6/0
[Ci sp]
+14.5 +9.9 74 +15 +15 1017.8 1009.7
22 17.06 З 1-2
{2}
н/о н/о +14.1 +10.1 77 +15 +15 1018.1 1009.9
23 17.06 Ю 1-1
{1}
н/о н/о +14.2 +9.8 75 +15 +15 1017.7 1009.6
00 18.06 штиль 0-1
{1}
20 км 6/0
[Ci sp]
+14.1 +10.3 78 +14 +14 1017.5 1009.4
01 18.06 штиль 0
{1}
н/о н/о +13.7 +10.1 79 +13 +13 1017.0 1008.8
02 18.06 ЮВ 1-1
{1}
н/о н/о +13.2 +10.6 84 +14 +14 1016.8 1008.6
03 18.06 В 1-1
{1}
20 км 6/0
[Ci sp]
+13.1 +10.5 84 +14 +14 1016.4 1008.2
04 18.06 СВ 1-1
{1}
н/о н/о +13.6 +9.4 76 +15 +15 1016.1 1007.9
05 18.06 СВ 1-1
{1}
н/о н/о +14.2 +9.2 72 +15 +15 1016.0 1007.9
06 18.06 В 1
{3}
н/о н/о +16.1 +9.0 63 +17 +17 1015.8 1007.7 +13.0 +16.1
07 18.06 В 1-2
{3}
н/о н/о +16.6 +8.8 60 +18 +18 1015.8 1007.7
08 18.06 В 1-2
{2}
н/о н/о +20.1 +10.8 55 +23 +23 комфорт 1015.5 1007.5
09 18.06 В 2-3
{4}
н/о н/о +20.7 +11.9 57 +24 +24 комфорт 1014.8 1006.9
10 18.06 В 2-3
{3}
н/о н/о +21.9 +13.0 57 +25 +25 комфорт 1014.2 1006.3
11 18.06 ЮВ 2-3
{3}
н/о н/о +24.0 +14.1 54 +26 +26 жарко 1013.7 1005.9
12 18.06 ЮВ 2-3
{4}
н/о н/о +25.0 +15.0 54 +28 +28 жарко 1013.0 1005.2
13 18.06 ЮВ 1-3
{3}
н/о н/о +25.6 +15.3 53 +29 +29 душно 1012.5 1004.7
14 18.06 СВ 2-3
{4}
н/о н/о +23.8 +16.1 62 +27 +27 жарко 1011.8 1004.0
15 18.06 СВ 2-4
{4}
10 км 10/0
[As op]
+22.6 +15.4 64 +27 +29 душно 1011.7 1003.8
16 18.06 СВ 3-4
{5}
н/о н/о +20.9 +14.8 68 +24 +24 комфорт 1011.4 1003.5
17 18.06 СВ 3-4
{6}
н/о н/о +18.9 +15.2 79 +20 +20 1010.7 1002.8 0.4
18 18.06 В 4-5
{6}
н/о н/о +18.3 +14.0 76 +19 +19 1010.5 1002.5 +15.6 +25.7 0.4
19 18.06 В 3-5
{5}
н/о н/о +18.0 +13.9 77 +18 +18 1010.0 1002.0
20 18.06 В 1-3
{5}
н/о н/о +17.7 +14.2 80 +19 +19 1009.6 1001.6
21 18.06 В 2-4
{4}
н/о н/о +17.7 +14.6 82 +18 +18 1009.0 1001.0
22 18.06 В 3-5
{5}
н/о н/о +19.0 +15.1 78 +21 +21 комфорт 1008.0 1000.1
23 18.06 ЮВ 3-4
{5}
н/о н/о +20.8 +14.7 68 +24 +24 комфорт 1008.2 1000.3

 

Местоположение метеостанции Булонь-сюр-Мер (Франция): широта 50.73 долгота 1.60 высота над уровнем моря 74 м.

В архиве по умолчанию представлена погода в Булонь-сюр-Мере за последнюю неделю. Архивные данные за месяц целиком и за предыдущие месяцы, начиная с января 2011 года, Вы можете получить, выбрав интересующий диапазон дат из раскрывающегося списка и нажав кнопку "Ввод!".


*Определитесь, кто Вы:
робот инопланетянин человек

Внимание! Время в таблицах - всемирное. Для получения местного времени необходимо прибавить поправку, которая равна 1 ч.

Смотрите также архив погоды в соседних городах и на ближайших метеорологических станциях:

Погода в Ле-Туке-Пари-Плаже (Франция) (23 км)
Погода в Заливе Лангдон (Великобритания) (48 км)
Погода в Дюнкерке (Франция) (62 км)
Погода в Аббевилле (Франция) (69 км)
Погода в Кент (Великобритания) (71 км)
Погода в Коксейде (Бельгия) (83 км)
Погода в Херстмонсо (Великобритания) (92 км)
Погода в Дьеппе (Франция) (96 км)
Погода в Остенде (Бельгия) (103 км)
Погода в Шоберинессе (Великобритания) (106 км)

Пояснения к столбцам:

Ветер - указаны скорость ветра в м/с - средняя за 10 мин, порывы в срок и между сроками (в фигурных скобках) и направление, откуда дует ветер: С - северный, СВ - северо-восточный, В - восточный, ЮВ - юго-восточный, Ю - южный, ЮЗ - юго-западный, З - западный, СЗ - северо-западный.
Видимость - горизонтальная дальность видимости в метрах или километрах. При видимости от 1 до 10 км при отсутствии осадков обычно наблюдается дымка, при ухудшении видимости до 1 км и менее - туман. В сухую погоду видимость может ухудшаться дымом, пылью или мглою.
Явления - указаны атмосферные явления, наблюдавшиеся в срок или в последний час перед сроком; фигурными скобками обозначены явления, наблюдавшиеся между сроками (за 1-3 часа до срока); квадратными скобками обозначены град или гололедные отложения с указанием их диаметра в мм.
Облачность - указаны через наклонную черту общая и нижняя облачность в баллах и высота нижней границы облаков в метрах; квадратными скобками обозначены формы облаков: Ci - перистые, Cs - перисто-слоистые, Cc - перисто-кучевые, Ac - высококучевые, As - высокослоистые, Sc - слоисто-кучевые, Ns - слоисто-дождевые, Cu - кучевые, Cb - кучево-дождевые. Подробнее классификацию облаков см. в Атласе облаков (PDF).
T - Температура воздуха - температура, измеренная на высоте 2 м над землей.
Td - Температура точки росы - температура, при понижении до которой содержащийся в воздухе водяной пар достигнет насыщения.
f - Относительная влажность воздуха - влажноcть воздуха, измеренная на высоте 2 м над землей.
Te - Эффективная температура - температура, которую ощущает одетый по сезону человек в тени. Характеристика душности погоды. При расчете учитывается влияние влажности воздуха и скорости ветра на теплоощущения человека.
Tes - Эффективная температура на солнце - температура, которую ощущает человек, с поправкой на солнечный нагрев. Характеристика знойности погоды. Зависит от высоты солнца над горизонтом, облачности и скорости ветра. Ночью, в пасмурную погоду, а также при ветре 12 м/с и более поправка равна нулю.
P - Атмосферное давление - приведенное к уровню моря атмосферное давление.
Po - Атмосферное давление - измеренное на уровне метеостанции атмосферное давление.
Tmin - Минимальная температура - минимум температуры воздуха на высоте 2 м над землей.
Tmax - Максимальная температура - максимум температуры воздуха на высоте 2 м над землей.
R - Количество осадков - Количество выпавших осадков за период времени, мм. При наведении курсора мыши на число - период времени, за который выпало указанное количество осадков.
R24 - Количество осадков - Количество выпавших осадков за 24 часа, мм.
S - Снежный покров - Высота снежного покрова, см. При наведении курсора мыши на число - состояние снежного покрова и степень покрытия местности в баллах.